Weather History for K2I0 - October, 2012

Change the Weather History Date:

Friday, October 5, 2012

  Actual Average Record
Temperature  
Mean Temperature 62 °F -  
Max Temperature 78 °F - - ()
Min Temperature 44 °F - - ()
Degree Days  
Heating Degree Days 4    
Growing Degree Days 12 (Base 50)    
Moisture  
Dew Point 59 °F    
Average Humidity 87    
Maximum Humidity 100    
Minimum Humidity 63    
Precipitation  
Precipitation 0.33 in - - ()
Sea Level Pressure  
Sea Level Pressure 30.10 in    
Wind  
Wind Speed 6 mph ()    
Max Wind Speed 24 mph    
Max Gust Speed 30 mph    
Visibility 9.4 miles    
Events Rain    
T = Trace of Precipitation, MM = Missing Value Source: Averaged Metar Reports

Daily Weather History Graph

Daily Weather History Graph

Search for Another Location

Airport or City:

Trip Planner

Search our weather history database for the weather conditions in past years. The results will help you decide how hot, cold, wet, or windy it might be!

Date:

Astronomy

Oct. 05, 2012 Rise Set
Actual Time 6:48 AM CDT 6:26 PM CDT
Civil Twilight 6:22 AM CDT 6:52 PM CDT
Nautical Twilight 5:52 AM CDT 7:22 PM CDT
Astronomical Twilight 5:22 AM CDT 7:52 PM CDT
Moon 9:55 PM CDT (10/5) 11:50 AM CDT (10/5)
Length of Visible Light 12h 29m
Length of Day
11h 37m
Waning Gibbous, 74% of the Moon is Illuminated
Oct 5
Waning Gibbous
Oct 8
Last Quarter
Oct 15
New
Oct 21
First Quarter
Oct 29
Full

Hourly Weather History & Observations

Time (CDT) Temp. Windchill Dew Point Humidity Pressure Visibility Wind Dir Wind Speed Gust Speed Precip Events Conditions
12:15 AM 61.7 °F - 60.3 °F 95% 30.17 in 10.0 mi SSW 4.6 mph - N/A   Clear
12:35 AM 61.7 °F - 60.3 °F 95% 30.16 in 10.0 mi SSW 4.6 mph - N/A   Clear
12:55 AM 62.2 °F - 60.6 °F 94% 30.16 in 10.0 mi SSW 3.5 mph - N/A   Clear
1:15 AM 62.1 °F - 60.4 °F 94% 30.16 in 10.0 mi SSW 4.6 mph - N/A   Clear
1:35 AM 62.6 °F - 60.6 °F 93% 30.16 in 10.0 mi SSW 4.6 mph - N/A   Clear
1:55 AM 62.2 °F - 60.3 °F 93% 30.16 in 10.0 mi SSW 4.6 mph - N/A   Clear
2:15 AM 60.8 °F - 59.9 °F 97% 30.16 in 10.0 mi Calm Calm - N/A   Clear
2:35 AM 61.7 °F - 60.3 °F 95% 30.15 in 10.0 mi SSW 4.6 mph - N/A   Clear
2:55 AM 61.2 °F - 59.9 °F 96% 30.15 in 10.0 mi SSW 4.6 mph - N/A   Clear
3:15 AM 61.7 °F - 60.3 °F 95% 30.14 in 10.0 mi SSW 4.6 mph - N/A   Clear
3:35 AM 59.9 °F - 59.0 °F 97% 30.14 in 10.0 mi SSW 4.6 mph - N/A   Clear
3:55 AM 59.5 °F - 59.0 °F 98% 30.14 in 7.0 mi SSW 5.8 mph - N/A   Clear
4:15 AM 60.8 °F - 59.5 °F 96% 30.14 in 10.0 mi SSW 3.5 mph - N/A   Clear
4:35 AM 60.4 °F - 59.5 °F 97% 30.14 in 10.0 mi SSW 3.5 mph - N/A   Clear
4:55 AM 60.4 °F - 59.7 °F 97% 30.14 in 10.0 mi South 3.5 mph - N/A   Clear
5:15 AM 60.6 °F - 59.7 °F 97% 30.14 in 10.0 mi South 4.6 mph - N/A   Clear
5:35 AM 61.3 °F - 60.6 °F 97% 30.13 in 10.0 mi South 4.6 mph - N/A   Clear
5:55 AM 60.6 °F - 59.7 °F 97% 30.13 in 10.0 mi SSW 3.5 mph - N/A   Clear
6:15 AM 58.5 °F - 58.5 °F 100% 30.15 in 5.0 mi NNW 6.9 mph - N/A   Clear
6:35 AM 59.9 °F - 59.4 °F 98% 30.15 in 7.0 mi Calm Calm - N/A   Clear
6:55 AM 59.5 °F - 59.5 °F 100% 30.14 in 5.0 mi Calm Calm - N/A   Clear
7:15 AM 59.4 °F - 59.2 °F 99% 30.15 in 5.0 mi Calm Calm - N/A   Clear
7:35 AM 59.7 °F - 59.7 °F 100% 30.14 in 5.0 mi Calm Calm - N/A   Clear
7:55 AM 62.2 °F - 61.7 °F 98% 30.14 in 7.0 mi South 3.5 mph - N/A   Clear
8:15 AM 63.7 °F - 62.4 °F 96% 30.13 in 7.0 mi SSW 4.6 mph - N/A   Clear
8:35 AM 64.8 °F - 63.1 °F 94% 30.14 in 7.0 mi WSW 3.5 mph - N/A   Clear
8:55 AM 65.8 °F - 63.1 °F 91% 30.14 in 10.0 mi West 5.8 mph - N/A   Clear
9:15 AM 67.1 °F - 63.9 °F 89% 30.14 in 10.0 mi WSW 3.5 mph - N/A   Clear
9:35 AM 68.7 °F - 64.2 °F 86% 30.14 in 10.0 mi WNW 6.9 mph - N/A   Clear
9:55 AM 69.3 °F - 63.7 °F 82% 30.14 in 10.0 mi WSW 3.5 mph - N/A   Clear
10:15 AM 70.0 °F - 63.9 °F 81% 30.13 in 10.0 mi West 4.6 mph - N/A   Clear
10:35 AM 70.7 °F - 63.3 °F 77% 30.14 in 10.0 mi West 8.1 mph - N/A   Clear
10:55 AM 71.1 °F - 63.7 °F 77% 30.13 in 10.0 mi West 5.8 mph - N/A   Scattered Clouds
11:15 AM 71.8 °F - 64.2 °F 77% 30.13 in 10.0 mi NW 5.8 mph - N/A   Scattered Clouds
11:35 AM 71.8 °F - 63.9 °F 76% 30.12 in 10.0 mi NNW 4.6 mph - N/A   Scattered Clouds
11:55 AM 72.7 °F - 64.6 °F 76% 30.11 in 10.0 mi West 6.9 mph - N/A   Mostly Cloudy
12:15 PM 73.0 °F - 64.6 °F 75% 30.10 in 10.0 mi NW 4.6 mph - N/A   Mostly Cloudy
12:35 PM 73.8 °F - 64.8 °F 73% 30.09 in 10.0 mi WNW 6.9 mph - N/A   Clear
12:55 PM 73.8 °F - 64.2 °F 72% 30.08 in 10.0 mi Calm Calm - N/A   Scattered Clouds
1:35 PM 76.5 °F - 64.9 °F 67% 30.04 in 10.0 mi South 3.5 mph - N/A   Scattered Clouds
1:55 PM 77.7 °F - 64.8 °F 64% 30.03 in 10.0 mi West 8.1 mph - N/A   Scattered Clouds
2:15 PM 77.0 °F - 64.4 °F 65% 30.03 in 10.0 mi West 5.8 mph - N/A   Scattered Clouds
2:35 PM 76.3 °F - 64.2 °F 66% 30.03 in 10.0 mi West 8.1 mph - N/A   Mostly Cloudy
2:55 PM 77.0 °F - 65.1 °F 67% 30.02 in 10.0 mi West 3.5 mph - N/A   Overcast
3:15 PM 78.1 °F - 64.8 °F 63% 30.01 in 10.0 mi WSW 4.6 mph - N/A   Mostly Cloudy
3:35 PM 76.5 °F - 64.6 °F 67% 30.01 in 10.0 mi West 6.9 mph - N/A   Mostly Cloudy
3:55 PM 76.1 °F - 65.3 °F 69% 29.99 in 10.0 mi WNW 4.6 mph - N/A   Overcast
4:15 PM 75.2 °F - 65.5 °F 72% 29.98 in 10.0 mi WNW 3.5 mph - N/A   Overcast
4:35 PM 75.2 °F - 65.7 °F 72% 29.97 in 10.0 mi Calm Calm - N/A   Overcast
4:55 PM 74.7 °F - 66.2 °F 75% 29.97 in 10.0 mi SSW 3.5 mph - N/A   Overcast
5:15 PM 73.8 °F - 67.1 °F 80% 29.98 in 10.0 mi West 3.5 mph - N/A   Overcast
5:35 PM 72.0 °F - 64.4 °F 77% 29.98 in 10.0 mi NNW 10.4 mph - N/A   Overcast
5:55 PM 68.2 °F - 60.3 °F 76% 30.01 in 10.0 mi North 18.4 mph 21.9 mph N/A   Overcast
6:15 PM 61.3 °F - 55.2 °F 80% 30.02 in 10.0 mi NNW 16.1 mph 26.5 mph N/A   Overcast
6:35 PM 57.0 °F - 53.1 °F 87% 30.03 in 10.0 mi North 18.4 mph 24.2 mph N/A   Overcast
6:55 PM 55.6 °F - 52.5 °F 89% 30.04 in 10.0 mi NNW 15.0 mph - N/A   Overcast
7:15 PM 53.4 °F - 50.2 °F 89% 30.06 in 10.0 mi North 20.7 mph 26.5 mph N/A Rain Light Rain
7:35 PM 51.6 °F - 48.9 °F 90% 30.08 in 10.0 mi North 15.0 mph 20.7 mph N/A   Light Drizzle
7:55 PM 50.9 °F - 48.0 °F 90% 30.07 in 10.0 mi North 13.8 mph 24.2 mph N/A   Overcast
8:15 PM 50.0 °F - 47.8 °F 92% 30.08 in 10.0 mi North 15.0 mph 24.2 mph N/A Rain Rain
8:35 PM 49.5 °F - 47.7 °F 94% 30.09 in 10.0 mi North 18.4 mph - N/A Rain Light Rain
8:55 PM 49.1 °F - 47.5 °F 94% 30.10 in 10.0 mi North 12.7 mph 20.7 mph N/A   Overcast
9:15 PM 49.1 °F - 47.3 °F 93% 30.11 in 10.0 mi North 12.7 mph - N/A   Overcast
9:35 PM 49.1 °F - 47.3 °F 93% 30.12 in 10.0 mi North 15.0 mph 21.9 mph N/A   Overcast
9:55 PM 48.7 °F - 47.3 °F 95% 30.13 in 10.0 mi North 17.3 mph 21.9 mph N/A   Overcast
10:15 PM 47.8 °F - 44.8 °F 89% 30.11 in 10.0 mi North 24.2 mph 29.9 mph N/A   Overcast
10:35 PM 46.9 °F - 44.4 °F 91% 30.14 in 10.0 mi North 13.8 mph 24.2 mph N/A   Overcast
10:55 PM 46.4 °F 39.2 °F 44.1 °F 92% 30.13 in 10.0 mi North 18.4 mph 23.0 mph 0.01 in Rain Light Rain
11:15 PM 45.9 °F 39.4 °F 43.9 °F 93% 30.12 in 10.0 mi NNE 15.0 mph 19.6 mph N/A Rain Rain
11:55 PM 44.6 °F 39.7 °F 44.1 °F 98% 30.15 in 2.0 mi North 9.2 mph - 0.32 in Rain Light Rain